Pompano Beach, FL

5:13 PM EDT on July 26, 2017 (GMT -0400)
Pompano Beach

Weather History for KPMP - April, 2014

Change the Weather History Date:

Monday, April 7, 2014

  Actual Average Record
Temperature  
Mean Temperature 80 °F -  
Max Temperature 86 °F 82 °F 90 °F (1982)
Min Temperature 75 °F 62 °F 44 °F (1950)
Cooling Degree Days 16    
Growing Degree Days 30 (Base 50)    
Moisture  
Dew Point 71 °F    
Average Humidity 75    
Maximum Humidity 88    
Minimum Humidity 61    
Precipitation  
Precipitation 0.00 in - - ()
Sea Level Pressure  
Sea Level Pressure 29.95 in    
Wind  
Wind Speed 14 mph (SSE)    
Max Wind Speed 22 mph    
Max Gust Speed 30 mph    
Visibility 9 miles    
Events      
Averages and records for this station are not official NWS values.
T = Trace of Precipitation, MM = Missing Value Source: NWS Daily Summary

Daily Weather History Graph

Daily Weather History Graph

Search for Another Location

Airport or City:

Trip Planner

Search our weather history database for the weather conditions in past years. The results will help you decide how hot, cold, wet, or windy it might be!

Date:

Astronomy

Apr. 07, 2014 Rise Set
Actual Time 7:05 AM EDT 7:40 PM EDT
Civil Twilight 6:41 AM EDT 8:03 PM EDT
Nautical Twilight 6:14 AM EDT 8:31 PM EDT
Astronomical Twilight 5:46 AM EDT 8:58 PM EDT
Moon 1:14 PM EDT (4/7) 2:01 AM EDT (4/7)
Length of Visible Light 13h 21m
Length of Day
12h 35m
First Quarter, 53% of the Moon is Illuminated
Apr 7
First Quarter
Apr 15
Full
Apr 22
Last Quarter
Apr 29
New
May 6
First Quarter

Hourly Weather History & Observations

Time (EDT) Temp. Heat Index Dew Point Humidity Pressure Visibility Wind Dir Wind Speed Gust Speed Precip Events Conditions
12:53 AM 75.9 °F - 66.9 °F 74% 30.00 in 10.0 mi SE 11.5 mph - N/A   Partly Cloudy
1:53 AM 77.0 °F - 68.0 °F 74% 29.98 in 10.0 mi SE 13.8 mph - N/A   Clear
2:53 AM 77.0 °F - 68.0 °F 74% 29.97 in 10.0 mi SE 12.7 mph - N/A   Clear
3:53 AM 77.0 °F - 68.0 °F 74% 29.95 in 10.0 mi SE 16.1 mph - N/A   Partly Cloudy
4:53 AM 77.0 °F - 69.1 °F 76% 29.94 in 10.0 mi SSE 15.0 mph 21.9 mph N/A   Partly Cloudy
5:53 AM 77.0 °F - 70.0 °F 79% 29.94 in 10.0 mi SSE 15.0 mph 24.2 mph N/A   Partly Cloudy
6:53 AM 77.0 °F - 69.1 °F 76% 29.95 in 10.0 mi SSE 15.0 mph - N/A   Clear
7:53 AM 78.1 °F - 70.0 °F 76% 29.97 in 10.0 mi SSE 12.7 mph - N/A   Clear
8:53 AM 80.1 °F 82.9 °F 69.1 °F 69% 29.99 in 10.0 mi South 15.0 mph - N/A   Clear
9:53 AM 82.0 °F 85.9 °F 70.0 °F 67% 29.99 in 10.0 mi South 16.1 mph 23.0 mph N/A   Clear
10:53 AM 82.9 °F 87.0 °F 70.0 °F 65% 29.98 in 10.0 mi SSE 16.1 mph 23.0 mph N/A   Partly Cloudy
11:53 AM 84.0 °F 88.4 °F 70.0 °F 63% 29.98 in 10.0 mi South 20.7 mph 27.6 mph N/A   Partly Cloudy
12:53 PM 84.0 °F 89.0 °F 71.1 °F 65% 29.96 in 10.0 mi South 19.6 mph 25.3 mph N/A   Clear
1:53 PM 86.0 °F 91.5 °F 71.1 °F 61% 29.95 in 10.0 mi South 15.0 mph 25.3 mph N/A   Partly Cloudy
2:53 PM 84.0 °F 89.6 °F 72.0 °F 67% 29.93 in 10.0 mi SSE 21.9 mph 29.9 mph N/A   Clear
4:53 PM 82.9 °F 88.8 °F 73.0 °F 72% 29.90 in 10.0 mi SSE 16.1 mph 26.5 mph N/A   Clear
5:53 PM 82.0 °F 86.7 °F 72.0 °F 71% 29.89 in 10.0 mi SSE 17.3 mph - N/A   Clear
6:53 PM 81.0 °F 85.2 °F 72.0 °F 74% 29.90 in 9.0 mi South 15.0 mph - N/A   Clear
7:53 PM 79.0 °F - 73.0 °F 82% 29.92 in 7.0 mi SSE 10.4 mph - N/A   Clear
8:53 PM 79.0 °F - 73.9 °F 84% 29.93 in 7.0 mi SSE 10.4 mph - N/A   Clear
9:53 PM 79.0 °F - 73.9 °F 84% 29.94 in 7.0 mi SSE 10.4 mph - N/A   Partly Cloudy
10:53 PM 79.0 °F - 75.0 °F 88% 29.93 in 7.0 mi SSE 8.1 mph - N/A   Clear
11:02 PM 79.0 °F - 75.0 °F 88% 29.93 in 7.0 mi SSE 6.9 mph - N/A   Scattered Clouds
11:11 PM 79.0 °F - 75.0 °F 88% 29.92 in 7.0 mi SE 6.9 mph - N/A   Mostly Cloudy
11:53 PM 79.0 °F - 75.0 °F 88% 29.94 in 7.0 mi SSE 9.2 mph - N/A   Mostly Cloudy